Location: Le Vaud
(46.4779°N, 6.2346°E)
Time: 15:40:12
(UTC+00:00)

Cosmos 2237 Rocket - Pass Details

Date: 18 February 2020
Orbit: 835 x 849 km, 71.0° (Epoch: 27 March)

Event Time Altitude Azimuth Distance (km) Brightness Sun altitude
Exits shadow 05:30:57 10° 309° (NW) 2,484 4.1 -11.6°
Reaches altitude 10° 05:31:14 10° 312° (NW) 2,455 4.1 -11.6°
Maximum altitude 05:32:45 11° 328° (NNW) 2,383 4.2 -11.3°
Drops below altitude 10° 05:34:17 10° 343° (NNW) 2,458 4.4 -11.1°
Sets 05:39:00 0° 19° (NNE) 3,396 5.5 -10.3°
